| time (UTC) | temp F | wind direction | speed knots | gust knots | rain 1hr in | rain 24hr in | rain mn in | humidity % | barometer mb |
| 20260510112037 | 55 | 201 | 0.9 | 1.7 | 0.00 | 0.02 | 0.01 | 68 | 1013.5 |
| 20260510111017 | 55 | 209 | 0.9 | 2.6 | 0.00 | 0.02 | 0.01 | 68 | 1013.2 |
| 20260510110017 | 55 | 193 | 0.9 | 1.7 | 0.00 | 0.02 | 0.01 | 67 | 1012.9 |
| 20260510105057 | 55 | 211 | 0.9 | 1.7 | 0.00 | 0.02 | 0.01 | 66 | 1013.1 |
| 20260510104018 | 55 | 199 | 0.9 | 2.6 | 0.00 | 0.02 | 0.01 | 65 | 1012.9 |
| 20260510103017 | 56 | 216 | 0.9 | 2.6 | 0.00 | 0.02 | 0.01 | 65 | 1012.4 |
| 20260510102018 | 56 | 224 | 0.9 | 2.6 | 0.00 | 0.03 | 0.01 | 65 | 1012.3 |
| 20260510101018 | 56 | 224 | 0.9 | 4.3 | 0.00 | 0.03 | 0.01 | 65 | 1012.3 |
| 20260510100135 | 57 | 221 | 0.9 | 2.6 | 0.00 | 0.04 | 0.01 | 66 | 1012.0 |
| 20260510095016 | 57 | 206 | 0.9 | 2.6 | 0.00 | 0.05 | 0.01 | 67 | 1012.0 |
| 20260510094015 | 57 | 204 | 0.9 | 1.7 | 0.00 | 0.06 | 0.01 | 67 | 1011.8 |
| 20260510093015 | 57 | 232 | 0.9 | 2.6 | 0.00 | 0.07 | 0.01 | 68 | 1011.6 |
| 20260510092016 | 58 | 230 | 0.9 | 2.6 | 0.00 | 0.08 | 0.01 | 67 | 1011.5 |
| 20260510091016 | 58 | 223 | 0.9 | 2.6 | 0.00 | 0.09 | 0.01 | 69 | 1011.3 |
| 20260510090016 | 58 | 216 | 0.9 | 2.6 | 0.00 | 0.09 | 0.01 | 69 | 1011.0 |
| 20260510085017 | 59 | 216 | 0.9 | 2.6 | 0.00 | 0.09 | 0.01 | 69 | 1010.8 |
| 20260510084036 | 59 | 228 | 1.7 | 5.2 | 0.00 | 0.09 | 0.01 | 70 | 1010.6 |
| 20260510083016 | 59 | 225 | 0.9 | 2.6 | 0.00 | 0.09 | 0.01 | 71 | 1010.4 |
| 20260510082017 | 59 | 238 | 1.7 | 3.5 | 0.00 | 0.09 | 0.01 | 74 | 1010.4 |
| 20260510081017 | 59 | 228 | 1.7 | 3.5 | 0.00 | 0.09 | 0.01 | 74 | 1010.1 |
| 20260510080017 | 59 | 237 | 1.7 | 4.3 | 0.00 | 0.10 | 0.01 | 74 | 1010.0 |
| 20260510075017 | 59 | 238 | 1.7 | 2.6 | 0.00 | 0.11 | 0.01 | 74 | 1010.1 |
| 20260510074018 | 60 | 221 | 0.9 | 2.6 | 0.00 | 0.12 | 0.01 | 73 | 1009.9 |
| 20260510073017 | 60 | 249 | 1.7 | 4.3 | 0.00 | 0.13 | 0.01 | 72 | 1010.2 |
| 20260510072017 | 61 | 249 | 0.9 | 3.5 | 0.00 | 0.14 | 0.01 | 70 | 1010.3 |
| 20260510071018 | 61 | 223 | 0.9 | 2.6 | 0.00 | 0.15 | 0.01 | 70 | 1010.2 |
| 20260510070018 | 61 | 236 | 0.9 | 3.5 | 0.00 | 0.16 | 0.01 | 69 | 1010.0 |
| 20260510065015 | 61 | 238 | 0.9 | 2.6 | 0.00 | 0.17 | 0.01 | 69 | 1010.1 |
| 20260510064016 | 61 | 218 | 0.9 | 3.5 | 0.00 | 0.17 | 0.01 | 69 | 1010.0 |
| 20260510063056 | 61 | 208 | 0.9 | 3.5 | 0.01 | 0.19 | 0.01 | 70 | 1009.9 |
| 20260510062016 | 62 | 213 | 0.9 | 3.5 | 0.01 | 0.20 | 0.01 | 68 | 1009.8 |
| 20260510061016 | 62 | 222 | 0.9 | 5.2 | 0.01 | 0.21 | 0.01 | 69 | 1009.8 |
| 20260510060016 | 62 | 247 | 1.7 | 6.1 | 0.01 | 0.21 | 0.01 | 70 | 1010.1 |
| 20260510055016 | 63 | 245 | 1.7 | 5.2 | 0.01 | 0.21 | 0.01 | 73 | 1010.3 |
| 20260510054017 | 63 | 258 | 2.6 | 7.8 | 0.00 | 0.21 | 0.00 | 70 | 1010.4 |
| 20260510053016 | 63 | 257 | 2.6 | 8.7 | 0.00 | 0.21 | 0.00 | 67 | 1010.4 |
| 20260510052017 | 63 | 232 | 1.7 | 6.1 | 0.00 | 0.21 | 0.00 | 68 | 1010.2 |
| 20260510051017 | 63 | 220 | 0.9 | 3.5 | 0.00 | 0.21 | 0.00 | 68 | 1010.1 |
| 20260510050017 | 63 | 202 | 0.9 | 3.5 | 0.00 | 0.21 | 0.00 | 68 | 1009.9 |
| 20260510045017 | 63 | 193 | 0.9 | 3.5 | 0.00 | 0.21 | 0.00 | 67 | 1009.8 |
| 20260510044017 | 63 | 187 | 0.9 | 3.5 | 0.00 | 0.21 | 0.00 | 67 | 1009.7 |
| 20260510043015 | 63 | 191 | 0.9 | 4.3 | 0.00 | 0.22 | 0.00 | 67 | 1009.6 |
| 20260510042016 | 63 | 187 | 0.9 | 3.5 | 0.00 | 0.22 | 0.00 | 68 | 1009.5 |
| 20260510041016 | 63 | 195 | 1.7 | 4.3 | 0.00 | 0.23 | 0.00 | 68 | 1009.4 |
| 20260510040016 | 63 | 198 | 1.7 | 4.3 | 0.00 | 0.23 | 0.00 | 67 | 1009.1 |
| 20260510035015 | 63 | 179 | 1.7 | 4.3 | 0.00 | 0.23 | 0.23 | 67 | 1009.1 |
| 20260510034016 | 63 | 173 | 1.7 | 5.2 | 0.00 | 0.23 | 0.23 | 67 | 1009.0 |
| 20260510033016 | 64 | 175 | 1.7 | 6.1 | 0.00 | 0.23 | 0.23 | 66 | 1009.1 |
| 20260510032016 | 63 | 180 | 0.9 | 3.5 | 0.00 | 0.23 | 0.23 | 66 | 1009.1 |
| 20260510031016 | 63 | 186 | 0.9 | 3.5 | 0.00 | 0.23 | 0.23 | 67 | 1008.9 |
| 20260510030016 | 63 | 192 | 0.9 | 3.5 | 0.00 | 0.23 | 0.23 | 67 | 1008.9 |
| 20260510025016 | 63 | 190 | 0.9 | 4.3 | 0.00 | 0.23 | 0.23 | 66 | 1008.8 |
| 20260510024016 | 64 | 175 | 0.9 | 2.6 | 0.00 | 0.23 | 0.23 | 66 | 1008.8 |
| 20260510023017 | 64 | 189 | 0.9 | 3.5 | 0.00 | 0.23 | 0.23 | 65 | 1008.7 |
| 20260510022017 | 64 | 191 | 0.9 | 4.3 | 0.00 | 0.23 | 0.23 | 64 | 1008.6 |
| 20260510021037 | 65 | 200 | 1.7 | 5.2 | 0.00 | 0.23 | 0.23 | 64 | 1008.4 |
| 20260510020017 | 65 | 198 | 1.7 | 5.2 | 0.00 | 0.23 | 0.23 | 63 | 1008.3 |
| 20260510015018 | 65 | 201 | 1.7 | 4.3 | 0.00 | 0.23 | 0.23 | 64 | 1008.2 |
| 20260510014017 | 65 | 205 | 1.7 | 6.1 | 0.00 | 0.23 | 0.23 | 63 | 1008.0 |
| 20260510013017 | 65 | 173 | 1.7 | 7.0 | 0.00 | 0.23 | 0.23 | 63 | 1007.8 |
| 20260510012018 | 66 | 154 | 0.9 | 5.2 | 0.00 | 0.23 | 0.23 | 62 | 1007.8 |
| 20260510011018 | 66 | 134 | 0.9 | 3.5 | 0.00 | 0.23 | 0.23 | 61 | 1007.5 |
| 20260510010015 | 67 | 110 | 0.9 | 2.6 | 0.00 | 0.23 | 0.23 | 61 | 1007.5 |
| 20260510005016 | 67 | 97 | 0.9 | 1.7 | 0.00 | 0.24 | 0.23 | 59 | 1007.4 |
| 20260510004018 | 68 | 78 | 0.9 | 2.6 | 0.00 | 0.24 | 0.23 | 57 | 1007.3 |
| 20260510003015 | 69 | 110 | 0.9 | 2.6 | 0.00 | 0.24 | 0.23 | 56 | 1007.3 |
| 20260510002016 | 69 | 184 | 0.9 | 3.5 | 0.00 | 0.24 | 0.23 | 54 | 1007.2 |
| 20260510001016 | 70 | 188 | 1.7 | 6.1 | 0.00 | 0.24 | 0.23 | 53 | 1007.1 |
| 20260510000016 | 71 | 131 | 0.9 | 7.0 | 0.00 | 0.25 | 0.23 | 52 | 1007.0 |
| 20260509235037 | 71 | 151 | 0.9 | 4.3 | 0.00 | 0.25 | 0.23 | 51 | 1006.9 |
| 20260509234016 | 71 | 155 | 0.9 | 3.5 | 0.00 | 0.25 | 0.23 | 50 | 1006.9 |
| 20260509233017 | 71 | 183 | 1.7 | 5.2 | 0.00 | 0.25 | 0.23 | 50 | 1006.9 |
| 20260509232017 | 72 | 187 | 2.6 | 6.1 | 0.00 | 0.25 | 0.23 | 48 | 1006.8 |
| 20260509231017 | 72 | 177 | 1.7 | 6.1 | 0.00 | 0.25 | 0.23 | 47 | 1006.9 |
| 20260509230017 | 73 | 166 | 1.7 | 5.2 | 0.00 | 0.25 | 0.23 | 47 | 1006.8 |
| 20260509225017 | 73 | 175 | 2.6 | 6.1 | 0.00 | 0.25 | 0.23 | 47 | 1006.9 |
| 20260509224017 | 73 | 178 | 2.6 | 6.1 | 0.00 | 0.25 | 0.23 | 47 | 1006.9 |
| 20260509223017 | 73 | 219 | 2.6 | 7.0 | 0.00 | 0.25 | 0.23 | 49 | 1006.9 |
| 20260509222018 | 72 | 160 | 2.6 | 6.1 | 0.00 | 0.25 | 0.23 | 49 | 1006.8 |
| 20260509221018 | 73 | 164 | 2.6 | 7.0 | 0.00 | 0.25 | 0.23 | 50 | 1006.8 |
| 20260509220015 | 73 | 161 | 1.7 | 7.0 | 0.00 | 0.25 | 0.23 | 51 | 1006.8 |
| 20260509215035 | 73 | 183 | 2.6 | 7.8 | 0.00 | 0.25 | 0.23 | 50 | 1006.9 |
| 20260509214016 | 74 | 168 | 1.7 | 6.1 | 0.00 | 0.25 | 0.23 | 50 | 1007.1 |
| 20260509213016 | 73 | 156 | 1.7 | 6.1 | 0.00 | 0.25 | 0.23 | 50 | 1007.2 |
| 20260509212016 | 74 | 178 | 2.6 | 9.6 | 0.00 | 0.25 | 0.23 | 49 | 1007.3 |
| 20260509211016 | 74 | 153 | 1.7 | 4.3 | 0.00 | 0.25 | 0.23 | 50 | 1007.4 |
| 20260509210036 | 73 | 146 | 1.7 | 5.2 | 0.00 | 0.25 | 0.23 | 51 | 1007.3 |
| 20260509205016 | 73 | 176 | 2.6 | 7.8 | 0.00 | 0.25 | 0.23 | 50 | 1007.5 |
| 20260509204016 | 73 | 186 | 2.6 | 7.0 | 0.00 | 0.25 | 0.23 | 51 | 1007.5 |
| 20260509203017 | 73 | 211 | 1.7 | 6.1 | 0.00 | 0.25 | 0.23 | 51 | 1007.6 |
| 20260509202017 | 73 | 169 | 2.6 | 7.0 | 0.00 | 0.25 | 0.23 | 52 | 1007.7 |
| 20260509201017 | 71 | 175 | 1.7 | 5.2 | 0.00 | 0.25 | 0.23 | 54 | 1007.8 |
| 20260509200017 | 71 | 155 | 2.6 | 6.1 | 0.00 | 0.25 | 0.23 | 54 | 1007.7 |
| 20260509195017 | 71 | 150 | 1.7 | 7.8 | 0.00 | 0.25 | 0.23 | 55 | 1007.8 |
| 20260509194018 | 72 | 182 | 1.7 | 7.0 | 0.00 | 0.25 | 0.23 | 54 | 1008.1 |
| 20260509193018 | 71 | 177 | 2.6 | 6.1 | 0.00 | 0.25 | 0.23 | 53 | 1008.2 |
| 20260509192018 | 71 | 138 | 2.6 | 6.1 | 0.00 | 0.25 | 0.23 | 57 | 1008.3 |
| 20260509191018 | 71 | 150 | 2.6 | 7.8 | 0.00 | 0.25 | 0.23 | 56 | 1008.1 |
| 20260509190015 | 70 | 177 | 1.7 | 5.2 | 0.00 | 0.25 | 0.23 | 55 | 1008.5 |
| 20260509185036 | 70 | 150 | 1.7 | 6.1 | 0.00 | 0.25 | 0.23 | 56 | 1008.5 |
| 20260509184036 | 70 | 172 | 1.7 | 6.1 | 0.00 | 0.25 | 0.23 | 55 | 1008.6 |
| 20260509183016 | 70 | 178 | 2.6 | 6.1 | 0.00 | 0.25 | 0.23 | 56 | 1008.8 |
| 20260509182036 | 70 | 164 | 2.6 | 7.0 | 0.00 | 0.25 | 0.23 | 56 | 1008.8 |
| 20260509181016 | 70 | 159 | 1.7 | 7.0 | 0.00 | 0.25 | 0.23 | 57 | 1008.9 |
| 20260509180016 | 69 | 178 | 1.7 | 5.2 | 0.00 | 0.25 | 0.23 | 58 | 1009.2 |
| 20260509175017 | 68 | 165 | 1.7 | 8.7 | 0.00 | 0.25 | 0.23 | 60 | 1009.0 |
| 20260509174017 | 67 | 179 | 2.6 | 7.0 | 0.00 | 0.25 | 0.23 | 60 | 1009.2 |
| 20260509173018 | 67 | 187 | 2.6 | 7.8 | 0.00 | 0.25 | 0.23 | 62 | 1009.0 |
| 20260509172017 | 67 | 155 | 1.7 | 5.2 | 0.00 | 0.25 | 0.23 | 62 | 1009.0 |
| 20260509171017 | 66 | 205 | 2.6 | 11.3 | 0.00 | 0.25 | 0.23 | 63 | 1009.6 |
| 20260509170017 | 66 | 203 | 1.7 | 7.0 | 0.00 | 0.25 | 0.23 | 68 | 1008.8 |
| 20260509165017 | 65 | 185 | 1.7 | 6.1 | 0.00 | 0.25 | 0.23 | 68 | 1009.8 |
| 20260509164017 | 65 | 281 | 1.7 | 3.5 | 0.00 | 0.25 | 0.23 | 69 | 1009.5 |
| 20260509163018 | 64 | 228 | 1.7 | 4.3 | 0.00 | 0.25 | 0.23 | 69 | 1009.5 |
| 20260509162017 | 64 | 210 | 1.7 | 5.2 | 0.00 | 0.25 | 0.23 | 69 | 1009.3 |
| 20260509161038 | 64 | 277 | 1.7 | 4.3 | 0.00 | 0.25 | 0.23 | 72 | 1009.5 |
| 20260509160015 | 63 | 193 | 1.7 | 3.5 | 0.00 | 0.25 | 0.23 | 73 | 1009.5 |
| 20260509155036 | 63 | 226 | 1.7 | 4.3 | 0.00 | 0.25 | 0.23 | 74 | 1009.4 |
| 20260509154016 | 62 | 215 | 1.7 | 5.2 | 0.00 | 0.25 | 0.23 | 75 | 1008.9 |
| 20260509153016 | 62 | 200 | 1.7 | 5.2 | 0.00 | 0.25 | 0.23 | 75 | 1009.0 |
| 20260509152016 | 61 | 177 | 0.9 | 4.3 | 0.00 | 0.25 | 0.23 | 77 | 1009.3 |
| 20260509151016 | 61 | 203 | 1.7 | 5.2 | 0.00 | 0.25 | 0.23 | 79 | 1008.8 |
| 20260509150036 | 60 | 192 | 1.7 | 3.5 | 0.00 | 0.25 | 0.23 | 80 | 1008.9 |
| 20260509145017 | 60 | 184 | 1.7 | 4.3 | 0.00 | 0.25 | 0.23 | 80 | 1008.7 |
| 20260509144017 | 61 | 206 | 1.7 | 5.2 | 0.00 | 0.25 | 0.23 | 82 | 1008.5 |
| 20260509143016 | 61 | 199 | 1.7 | 5.2 | 0.00 | 0.25 | 0.23 | 80 | 1008.7 |
| 20260509142017 | 60 | 195 | 0.9 | 3.5 | 0.00 | 0.25 | 0.23 | 83 | 1009.2 |
| 20260509141017 | 59 | 209 | 1.7 | 3.5 | 0.00 | 0.25 | 0.23 | 84 | 1008.8 |
| 20260509140058 | 59 | 208 | 1.7 | 4.3 | 0.00 | 0.25 | 0.23 | 85 | 1009.0 |
| 20260509135017 | 59 | 202 | 0.9 | 3.5 | 0.00 | 0.25 | 0.23 | 86 | 1008.9 |
| 20260509134021 | 59 | 202 | 1.7 | 3.5 | 0.00 | 0.25 | 0.23 | 87 | 1009.3 |
| 20260509133017 | 58 | 196 | 2.6 | 5.2 | 0.00 | 0.25 | 0.23 | 88 | 1009.2 |
| 20260509132018 | 57 | 204 | 2.6 | 7.8 | 0.00 | 0.25 | 0.23 | 91 | 1009.4 |
| 20260509131038 | 56 | 193 | 1.7 | 3.5 | 0.01 | 0.25 | 0.23 | 95 | 1008.8 |
| 20260509130018 | 55 | 183 | 1.7 | 3.5 | 0.01 | 0.25 | 0.23 | 96 | 1008.9 |
| 20260509125018 | 54 | 171 | 2.6 | 3.5 | 0.01 | 0.25 | 0.23 | 97 | 1008.8 |
| 20260509124018 | 54 | 163 | 1.7 | 2.6 | 0.01 | 0.25 | 0.23 | 97 | 1008.8 |
| 20260509123019 | 53 | 166 | 1.7 | 2.6 | 0.01 | 0.25 | 0.23 | 97 | 1008.8 |
| 20260509122019 | 53 | 176 | 1.7 | 3.5 | 0.01 | 0.25 | 0.23 | 96 | 1008.6 |
| 20260509121016 | 53 | 165 | 1.7 | 4.3 | 0.01 | 0.25 | 0.22 | 96 | 1008.3 |
| 20260509120015 | 53 | 163 | 1.7 | 3.5 | 0.00 | 0.24 | 0.22 | 96 | 1008.2 |
| 20260509115016 | 53 | 168 | 2.6 | 4.3 | 0.00 | 0.24 | 0.22 | 96 | 1008.3 |
| 20260509114016 | 53 | 170 | 1.7 | 4.3 | 0.00 | 0.24 | 0.21 | 96 | 1008.4 |
| 20260509113037 | 53 | 163 | 1.7 | 3.5 | 0.00 | 0.24 | 0.21 | 96 | 1008.5 |